Location: 5810 Zion Rd, Cleves, OH 45002, USA
(39.1922°N, 84.7113°W)
Time: 00:59:27
(UTC-05:00)

Courier 1B Rocket - Pass Details

Date: 13 December 2019
Orbit: 920 x 1202 km, 28.2° (Epoch: 28 January)

Event Time Altitude Azimuth Distance (km) Brightness Sun altitude
Rises 09:11:43 0° 259° (W) 3,768 7.7 11.9°
Reaches altitude 10° 09:14:55 10° 247° (WSW) 2,767 7.2 12.4°
Maximum altitude 09:20:16 26° 193° (SSW) 1,796 7.0 13.1°
Drops below altitude 10° 09:25:23 10° 139° (SE) 2,638 10.5 13.8°
Sets 09:28:22 0° 127° (SE) 3,559 9.8 14.2°
